[[{"header":{"parameterUnit":"m.s-1","parameterCategory":1,"la1":30.2991,"la2":30.254,"lo1":-89.0895,"lo2":-89.0444,"dy":0.0017,"dx":0.0017,"nx":28,"ny":28,"refTime":"2025-04-17T03:00:00:Z","depth":0,"parameterNumber":2,"parameterNumberName":"U-component_of_WINDS"},"data":[0,0,0,0,0,0,0,0,0,0,0,0,0,0,0,0,0,0,0,0,0,0,0,0,0,0,0,0,0,0,0,0,0,0,0,0,0,0,0,0,0,0,0,0,0,0,0,0,0,0,0,0,0,0,0,0,0,0,-3.1777,-3.1778,0,-3.1832,-3.1833,-3.1833,-3.1822,-3.1821,-3.182,-3.1819,-3.1875,-3.1877,-3.1879,0,0,0,0,0,0,0,0,0,0,0,0,0,-3.1663,-3.1665,-3.1777,-3.1778,-3.1779,-3.1832,-3.1833,-3.1833,-3.1822,-3.1821,-3.182,-3.1818,-3.1874,-3.1877,-3.188,0,0,0,0,0,0,0,0,0,0,0,0,0,-3.1715,-3.1666,-3.1777,-3.1779,-3.178,-3.1832,-3.1833,-3.1834,-3.1822,-3.1821,-3.1819,-3.1818,-3.1873,-3.1876,-3.188,-3.1933,0,0,-3.1891,-3.1893,0,0,0,0,0,0,0,0,-3.1712,-3.1719,-3.1778,-3.1779,-3.178,-3.1819,-3.1813,-3.1867,-3.1823,-3.1806,-3.1819,-3.1817,-3.1857,-3.1862,-3.1876,-3.1935,-3.1938,-3.1891,-3.1894,-3.1895,-3.1896,0,0,0,0,0,0,0,-3.1708,-3.1716,-3.1799,-3.1779,-3.178,-3.1778,-3.1783,-3.1823,-3.1839,-3.1808,-3.1807,-3.1814,-3.1857,-3.1872,-3.1877,-3.1938,-3.1891,-3.1894,-3.1897,-3.1898,-3.2045,-3.2047,0,0,0,0,0,0,-3.1704,-3.1713,-3.1797,-3.18,-3.1742,-3.1781,-3.1787,-3.1808,-3.1839,-3.1842,-3.1815,-3.1813,-3.1867,-3.1873,-3.1879,-3.1943,-3.1895,-3.1898,-3.1901,-3.2043,-3.2045,-3.2047,0,0,0,0,0,0,-3.1701,-3.1711,-3.1795,-3.1757,-3.1767,-3.1785,-3.1808,-3.181,-3.1824,-3.1845,-3.1847,-3.1827,-3.1866,-3.1874,-3.192,-3.1944,-3.19,-3.1903,-3.2041,-3.2044,-3.2046,-3.2071,0,0,0,0,0,0,-3.1698,-3.171,-3.173,-3.1757,-3.1769,-3.1835,-3.1809,-3.1812,-3.1831,-3.1829,-3.1856,-3.186,-3.1865,-3.1914,-3.1923,-3.1949,-3.1906,-3.2039,-3.2042,-3.2046,-3.2068,-3.2074,-3.2079,0,0,0,0,0,-3.1694,-3.1735,-3.1731,-3.1742,-3.1795,-3.1836,-3.1843,-3.1848,-3.1833,-3.1853,-3.1866,-3.1859,-3.1941,-3.1919,-3.1929,-3.1956,-3.2038,-3.2042,-3.2045,-3.2065,-3.2073,-3.2079,0,0,0,0,0,0,-3.1709,-3.1738,-3.1735,-3.1786,-3.1809,-3.1834,-3.186,-3.1856,-3.1884,-3.1881,-3.1886,-3.1893,-3.194,-3.1953,-3.1928,-3.2009,-3.1987,-3.1993,-3.1999,-3.2006,-3.2011,-3.2007,-3.1909,0,0,0,0,0,-3.1719,-3.175,-3.1774,-3.1816,-3.1828,-3.1842,-3.186,-3.1863,-3.1887,-3.1896,-3.1913,-3.1936,-3.1967,-3.1987,-3.2017,-3.207,-3.2076,-3.2094,-3.2099,-3.2104,-3.2109,-3.2138,-3.2147,-3.206,-3.206,-3.206,0,0,-3.1738,-3.1758,-3.1777,-3.182,-3.1838,-3.187,-3.185,-3.1885,-3.1909,-3.1901,-3.1946,-3.1959,-3.1986,-3.2036,-3.2058,-3.2048,-3.2134,-3.2109,-3.2112,-3.2115,-3.2143,-3.2151,-3.2159,-3.2063,-3.2062,-3.2062,0,0,-3.1791,-3.1809,-3.1846,-3.1865,-3.1893,-3.1902,-3.1912,-3.1938,-3.1947,-3.1992,-3.1987,-3.2016,-3.2069,-3.2088,-3.2105,-3.2167,-3.2161,-3.2176,-3.2205,-3.2234,-3.2241,-3.2247,-3.2269,-3.2276,-3.2181,-3.2181,-3.2181,0,-3.1811,-3.186,-3.1866,-3.1902,-3.1921,-3.1916,-3.1955,-3.1973,-3.2009,-3.2022,-3.201,-3.2077,-3.2095,-3.215,-3.2165,-3.2179,-3.2189,-3.2172,-3.2239,-3.2246,-3.2251,-3.2272,-3.228,-3.2183,-3.2183,-3.2183,-3.2183,0,-3.1884,-3.1918,-3.1945,-3.198,-3.2003,-3.2039,-3.2051,-3.2073,-3.2075,-3.2085,-3.2132,-3.2153,-3.2187,-3.2201,-3.2202,-3.2256,-3.2248,-3.2238,-3.2215,-3.2261,-3.2281,-3.2289,-3.2185,-3.2185,-3.2184,-3.2184,0,0,-3.1945,-3.1985,-3.1995,-3.2011,-3.2043,-3.2069,-3.2106,-3.214,-3.2159,-3.2185,-3.2216,-3.2262,-3.2253,-3.2272,-3.2276,-3.2301,-3.2349,-3.2288,-3.2288,-3.2298,-3.241,-3.2417,-3.2426,-3.2346,-3.2347,-3.2348,-3.2407,0,-3.2,-3.2065,-3.2073,-3.2131,-3.2163,-3.216,-3.2192,-3.2215,-3.2227,-3.2255,-3.2268,-3.2301,-3.2286,-3.2298,-3.2323,-3.2337,-3.2371,-3.2333,-3.2374,-3.2376,-3.2367,-3.2436,-3.2443,-3.2498,-3.2415,-3.2416,-3.2417,0,-3.2072,-3.21,-3.2161,-3.2189,-3.2203,-3.2232,-3.2264,-3.2292,-3.2318,-3.2325,-3.2347,-3.2348,-3.2387,-3.2364,-3.2418,-3.2392,-3.241,-3.2419,-3.2422,-3.2425,-3.2398,-3.2441,-3.2515,-3.2523,-3.243,-3.2429,-3.2428,0,-3.211,-3.2164,-3.2208,-3.2222,-3.2256,-3.2276,-3.2291,-3.2316,-3.2336,-3.2365,-3.2378,-3.2411,-3.2428,-3.2454,-3.2463,-3.2446,-3.2517,-3.2495,-3.2523,-3.2523,-3.2537,-3.2536,-3.2615,-3.255,-3.255,-3.255,-3.255,0,-3.2169,-3.2207,-3.2225,-3.2252,-3.2295,-3.2304,-3.2345,-3.236,-3.2382,-3.2412,-3.2412,-3.244,-3.2451,-3.2482,-3.249,-3.2533,-3.2541,-3.2548,-3.2549,-3.2547,-3.2546,-3.2558,-3.2554,-3.2552,-3.2551,-3.2551,-3.2551,0,-3.2219,-3.2232,-3.228,-3.2309,-3.2317,-3.2347,-3.2372,-3.2398,-3.241,-3.2448,-3.2457,-3.2476,-3.2511,-3.2524,-3.2567,-3.2573,-3.2623,-3.2622,-3.2614,-3.2614,-3.2642,-3.2639,-3.273,-3.2743,-3.267,-3.2671,-3.2671,0,-3.2255,-3.2284,-3.2317,-3.2337,-3.2353,-3.2385,-3.2406,-3.2417,-3.2438,-3.2472,-3.2494,-3.253,-3.2558,-3.2615,-3.2633,-3.2666,-3.2665,-3.2695,-3.267,-3.2667,-3.2665,-3.2663,-3.2666,-3.2699,-3.27,-3.2701,-3.2701,0,-3.2319,-3.2324,-3.2355,-3.2388,-3.2413,-3.244,-3.2465,-3.2482,-3.2496,-3.2521,-3.2558,-3.258,-3.2625,-3.266,-3.2695,-3.271,-3.2708,-3.2709,-3.2718,-3.2715,-3.2709,-3.2713,-3.2626,-3.2707,-3.2706,-3.2706,-3.2705,-3.2705,-3.2362,-3.2388,-3.2415,-3.2449,-3.247,-3.2495,-3.2521,-3.2537,-3.2567,-3.2605,-3.2609,-3.2649,-3.2675,-3.2721,-3.2739,-3.277,-3.2762,-3.2774,-3.2777,-3.278,-3.2781,-3.2705,-3.2777,-3.2776,-3.2776,-3.2776,-3.2776,0,-3.2425,-3.2443,-3.2474,-3.2511,-3.2538,-3.2535,-3.2563,-3.2586,-3.2621,-3.2646,-3.2675,-3.2718,-3.2752,-3.2773,-3.2808,-3.2829,-3.2829,-3.2838,-3.2836,-3.284,-3.2787,-3.2776,-3.2837,-3.2837,-3.2837,-3.2837,-3.2837,-3.2837,-3.2461,-3.2505,-3.2514,-3.2569,-3.2586,-3.2625,-3.2642,-3.2664,-3.2685,-3.2732,-3.2761,-3.2775,-3.2799,-3.2836,-3.2868,-3.2873,-3.2886,-3.2895,-3.29,-3.285,-3.2843,-3.2837,-3.2827,-3.2898,-3.2898,-3.295,-3.295,-3.295]},{"header":{"parameterUnit":"m.s-1","parameterCategory":1,"la1":30.2991,"la2":30.254,"lo1":-89.0895,"lo2":-89.0444,"dy":0.0017,"dx":0.0017,"nx":28,"ny":28,"refTime":"2025-04-17T03:00:00:Z","depth":0,"parameterNumber":3,"parameterNumberName":"V-component_of_WINDS"},"data":[0,0,0,0,0,0,0,0,0,0,0,0,0,0,0,0,0,0,0,0,0,0,0,0,0,0,0,0,0,0,0,0,0,0,0,0,0,0,0,0,0,0,0,0,0,0,0,0,0,0,0,0,0,0,0,0,0,0,2.582,2.5819,0,2.5755,2.5754,2.5754,2.5725,2.5725,2.5725,2.5725,2.5653,2.5651,2.5649,0,0,0,0,0,0,0,0,0,0,0,0,0,2.5915,2.5913,2.582,2.5819,2.5818,2.5755,2.5754,2.5753,2.5725,2.5725,2.5725,2.5725,2.5654,2.5652,2.5649,0,0,0,0,0,0,0,0,0,0,0,0,0,2.5864,2.5913,2.582,2.5797,2.5794,2.5755,2.5754,2.5753,2.5725,2.5725,2.5725,2.5725,2.5655,2.5652,2.5649,2.5627,0,0,2.564,2.5638,0,0,0,0,0,0,0,0,2.5867,2.5861,2.5801,2.5798,2.5795,2.5748,2.5761,2.5711,2.5725,2.5751,2.5725,2.5725,2.5685,2.5679,2.5666,2.5624,2.5621,2.5639,2.5638,2.5636,2.5635,0,0,0,0,0,0,0,2.5871,2.5863,2.5794,2.58,2.5797,2.5788,2.5781,2.5752,2.5717,2.5749,2.5747,2.574,2.5683,2.5669,2.5664,2.562,2.564,2.5637,2.5635,2.5634,2.5557,2.5557,0,0,0,0,0,0,2.5879,2.5866,2.5796,2.5792,2.5832,2.5786,2.5778,2.5763,2.5718,2.5711,2.5739,2.5738,2.5674,2.5668,2.5662,2.5634,2.5636,2.5633,2.5632,2.5557,2.5557,2.5556,0,0,0,0,0,0,2.5881,2.5873,2.5799,2.5829,2.5819,2.5784,2.5768,2.5762,2.5748,2.5711,2.5704,2.5732,2.5674,2.5666,2.5637,2.5631,2.5632,2.5629,2.5557,2.5557,2.5557,2.5578,0,0,0,0,0,0,2.5884,2.5874,2.5866,2.5829,2.5817,2.5776,2.5767,2.576,2.5744,2.5742,2.5702,2.5696,2.5674,2.5641,2.5634,2.5627,2.5627,2.5558,2.5557,2.5557,2.5577,2.5578,2.5579,0,0,0,0,0,2.5887,2.5873,2.5866,2.5857,2.5807,2.5776,2.5769,2.5746,2.5744,2.5735,2.5711,2.5697,2.5633,2.5639,2.563,2.5622,2.5558,2.5557,2.5557,2.5577,2.5578,2.5579,0,0,0,0,0,0,2.5907,2.5867,2.5859,2.5833,2.5808,2.5771,2.5759,2.5747,2.5721,2.572,2.5691,2.5682,2.5655,2.5635,2.5642,2.5599,2.5594,2.5592,2.5613,2.5613,2.5614,2.5619,2.5625,0,0,0,0,0,2.591,2.5889,2.5854,2.5834,2.5823,2.5794,2.5779,2.5763,2.5736,2.5725,2.5698,2.5671,2.5645,2.5628,2.5602,2.5575,2.5565,2.5565,2.5566,2.5567,2.5564,2.5549,2.5549,2.5555,2.5555,2.5555,0,0,2.5912,2.5888,2.5876,2.5838,2.5817,2.5795,2.5785,2.5762,2.5745,2.572,2.5692,2.5672,2.5639,2.5611,2.5597,2.5594,2.5561,2.5566,2.5567,2.5564,2.5549,2.5548,2.5548,2.5554,2.5554,2.5554,0,0,2.5906,2.5886,2.5868,2.5848,2.5817,2.5798,2.5794,2.5759,2.5746,2.5717,2.5699,2.5677,2.5633,2.5611,2.5593,2.5582,2.5568,2.5574,2.5577,2.5563,2.5562,2.5561,2.5557,2.5556,2.5572,2.5572,2.5572,0,2.5913,2.5881,2.5859,2.5838,2.5822,2.5801,2.5782,2.5763,2.5725,2.5713,2.5711,2.5656,2.5632,2.5599,2.5596,2.5583,2.5577,2.5577,2.5564,2.5563,2.5563,2.5558,2.5557,2.5573,2.5573,2.5573,2.5573,0,2.5891,2.5869,2.5858,2.5824,2.5806,2.5786,2.576,2.5745,2.5731,2.5712,2.5683,2.5655,2.5623,2.5614,2.5599,2.5579,2.5578,2.557,2.5565,2.5563,2.5559,2.5557,2.5574,2.5574,2.5574,2.5573,0,0,2.5894,2.5851,2.5847,2.5832,2.5798,2.578,2.5759,2.573,2.5717,2.5692,2.5673,2.5637,2.563,2.561,2.5593,2.5581,2.5574,2.5574,2.5573,2.5575,2.5549,2.5555,2.5554,2.5565,2.5564,2.5564,2.5552,0,2.5884,2.5847,2.5828,2.5798,2.5778,2.5759,2.5741,2.5717,2.5699,2.5678,2.5657,2.5633,2.5625,2.5614,2.5601,2.5577,2.5568,2.5578,2.5546,2.5545,2.5554,2.5551,2.5557,2.5547,2.555,2.555,2.555,0,2.5866,2.5844,2.5813,2.5783,2.5774,2.5758,2.573,2.5711,2.5683,2.5671,2.5651,2.5635,2.5611,2.5608,2.5575,2.5582,2.5568,2.5555,2.5554,2.5549,2.5547,2.5546,2.5544,2.5542,2.5547,2.5547,2.5547,0,2.5872,2.5834,2.5811,2.5799,2.5763,2.5752,2.5736,2.5709,2.5694,2.5669,2.5658,2.5631,2.5615,2.5594,2.557,2.5571,2.5539,2.5535,2.5528,2.5528,2.5521,2.5521,2.5515,2.5513,2.5513,2.5513,2.5513,0,2.5862,2.5844,2.5814,2.5799,2.5779,2.5756,2.5736,2.5718,2.5695,2.5677,2.5658,2.564,2.5611,2.559,2.5571,2.5546,2.5539,2.5528,2.5523,2.5529,2.5531,2.5519,2.5519,2.5512,2.5512,2.5512,2.5512,0,2.5864,2.5843,2.5817,2.5786,2.5778,2.5764,2.5737,2.5722,2.5704,2.5681,2.5674,2.5645,2.5619,2.5594,2.5558,2.5546,2.5521,2.5515,2.5531,2.5528,2.5522,2.5523,2.5508,2.5505,2.5505,2.5505,2.5505,0,2.5859,2.5845,2.5814,2.5801,2.5786,2.5765,2.575,2.5728,2.5712,2.5681,2.567,2.5643,2.5621,2.558,2.5555,2.5528,2.552,2.5517,2.5516,2.5523,2.552,2.5521,2.552,2.5517,2.5517,2.5517,2.5518,0,2.5852,2.5843,2.5822,2.5799,2.5782,2.5761,2.574,2.573,2.5703,2.5687,2.5662,2.5644,2.561,2.5583,2.5554,2.5535,2.5522,2.5519,2.5515,2.5521,2.5531,2.5526,2.5532,2.5519,2.5518,2.5518,2.5518,2.5518,2.585,2.5837,2.5814,2.5792,2.5774,2.5755,2.574,2.5722,2.5701,2.5672,2.566,2.5634,2.5608,2.5567,2.555,2.5528,2.5525,2.552,2.5519,2.5518,2.552,2.5536,2.5523,2.5523,2.5523,2.5523,2.5523,0,2.5842,2.5826,2.5807,2.5779,2.5762,2.5753,2.573,2.5715,2.5694,2.5671,2.565,2.5621,2.5596,2.557,2.5543,2.5531,2.5524,2.5524,2.5525,2.5521,2.5524,2.553,2.5531,2.5531,2.5531,2.5531,2.5531,2.5531,2.5836,2.5814,2.5802,2.5772,2.5756,2.5732,2.572,2.5702,2.5684,2.5654,2.5633,2.5617,2.5593,2.5565,2.5541,2.5534,2.5524,2.5527,2.5518,2.5521,2.5521,2.552,2.5525,2.5525,2.5525,2.5516,2.5516,2.5516]}]]